Location: Oshawa
(43.9000°N, 78.8670°W)
Time: 20:18:21
(UTC-04:00)

Cosmos 839 Rocket - Visible Passes

Search period start: 25 September 2017 00:00
Search period end: 05 October 2017 00:00
Orbit: 965 x 2088 km, 65.9° (Epoch: 25 September)

Date Brightness Start Highest point End Pass type
(mag) Time Alt. Az. Time Alt. Az. Time Alt. Az.
25 Sep 7.0 01:14:03 10° WNW 01:14:44 11° WNW 01:14:44 11° WNW visible
25 Sep 5.8 20:29:28 10° NNW 20:36:11 30° NE 20:40:53 20° E visible
25 Sep 4.8 22:29:00 10° NNW 22:37:20 89° WSW 22:37:31 87° S visible
26 Sep 6.6 00:30:26 10° WNW 00:34:08 20° W 00:34:08 20° W visible
26 Sep 6.0 19:47:41 10° NNW 19:53:37 23° NNE 20:00:20 11° E visible
26 Sep 4.9 21:47:07 10° NNW 21:55:17 69° NE 21:56:57 60° ESE visible
26 Sep 6.1 23:47:42 10° NW 23:53:34 32° W 23:53:34 32° W visible
27 Sep 5.2 21:05:17 10° NNW 21:13:08 52° NE 21:16:25 38° E visible
27 Sep 5.5 23:05:21 10° NW 23:13:04 48° WSW 23:13:04 48° WSW visible
28 Sep 5.5 20:23:29 10° NNW 20:30:52 39° NE 20:35:59 23° E visible
28 Sep 5.1 22:23:14 10° NW 22:31:36 67° WSW 22:32:37 64° SSW visible
29 Sep 6.9 00:26:10 10° WNW 00:29:15 14° W 00:29:15 14° W visible
29 Sep 5.7 19:41:42 10° NNW 19:48:28 30° NE 19:55:36 13° E visible
29 Sep 4.9 21:41:15 10° NNW 21:49:38 90° WSW 21:52:14 56° SSE visible
29 Sep 6.5 23:42:38 10° WNW 23:48:53 24° WSW 23:48:53 24° WSW visible
30 Sep 4.9 20:59:21 10° NNW 21:07:35 69° NE 21:11:56 38° SE visible
30 Sep 6.0 22:59:55 10° NW 23:07:38 35° WSW 23:08:35 34° WSW visible
01 Oct 5.2 20:17:31 10° NNW 20:25:26 51° NE 20:31:44 23° ESE visible
01 Oct 5.6 22:17:35 10° NW 22:25:49 49° WSW 22:28:23 42° SSW visible
02 Oct 5.5 19:35:44 10° NNW 19:43:09 38° NE 19:51:39 12° ESE visible
02 Oct 5.2 21:35:28 10° NW 21:43:56 68° WSW 21:48:19 39° S visible
02 Oct 6.9 23:38:18 10° WNW 23:43:14 16° WSW 23:44:59 15° WSW visible
03 Oct 5.0 20:53:29 10° NNW 21:01:57 89° ENE 21:08:23 28° SSE visible
03 Oct 6.6 22:54:50 10° WNW 23:01:39 24° WSW 23:05:04 21° SW visible
04 Oct 5.0 20:11:36 10° NNW 20:19:53 68° NE 20:28:37 16° SE visible
04 Oct 6.2 22:12:09 10° NW 22:19:57 35° WSW 22:25:20 23° SSW visible
